This is the latest recevied weather packets stored in our database for station/object AJ5AG. If no packets are shown the sender has not sent any weather packets the latest 1 day(s).
| Time | Temp. | Humidity | Pressure | Rain* | Wind** | Luminosity | Snow |
|---|---|---|---|---|---|---|---|
| 1778002192 | 26.67° C | 79% | 1011.7 hPa | 0 mm | 0 m/s | 276 W/m² | - |
| 1778001891 | 26.11° C | 80% | 1011.8 hPa | 0 mm | 0.89 m/s, 356° | 336 W/m² | - |
| 1778001590 | 26.11° C | 80% | 1011.7 hPa | 0 mm | 0.45 m/s, 89° | 144 W/m² | - |
| 1778001287 | 26.11° C | 80% | 1011.7 hPa | 0 mm | 0 m/s | 122 W/m² | - |
| 1778000984 | 26.67° C | 80% | 1011.8 hPa | 0 mm | 0 m/s | 123 W/m² | - |
| 1778000680 | 26.67° C | 80% | 1011.6 hPa | 0 mm | 0.45 m/s, 146° | 78 W/m² | - |
| 1778000376 | 26.67° C | 80% | 1011.7 hPa | 0 mm | 0 m/s | 210 W/m² | - |
| 1778000072 | 26.11° C | 80% | 1011.7 hPa | 0 mm | 0.45 m/s, 49° | 275 W/m² | - |
| 1777999767 | 26.11° C | 80% | 1011.9 hPa | 0 mm | 0.89 m/s, 109° | 164 W/m² | - |
| 1777999464 | 26.11° C | 80% | 1011.9 hPa | 0 mm | 0.89 m/s, 59° | 217 W/m² | - |
| 1777999162 | 26.11° C | 81% | 1011.8 hPa | 0 mm | 0 m/s | 239 W/m² | - |
| 1777998861 | 25.56° C | 82% | 1011.8 hPa | 0 mm | 0.45 m/s, 44° | 188 W/m² | - |
| 1777998560 | 25.56° C | 82% | 1012 hPa | 0 mm | 0.89 m/s, 188° | 275 W/m² | - |
| 1777998255 | 25.56° C | 82% | 1012 hPa | 0 mm | 0 m/s | 193 W/m² | - |
| 1777997952 | 25.56° C | 82% | 1012.1 hPa | 0 mm | 0.45 m/s, 115° | 122 W/m² | - |
| 1777997649 | 25.56° C | 83% | 1012 hPa | 0 mm | 0 m/s | 134 W/m² | - |
| 1777997346 | 25° C | 83% | 1012.1 hPa | 0 mm | 0 m/s | 234 W/m² | - |
| 1777997044 | 25° C | 85% | 1011.9 hPa | 0 mm | 0 m/s | 203 W/m² | - |
| 1777996740 | 25° C | 85% | 1012 hPa | 0 mm | 0 m/s | 82 W/m² | - |
| 1777996436 | 24.44° C | 85% | 1012.1 hPa | 0 mm | 0 m/s | 91 W/m² | - |
| 1777996133 | 24.44° C | 85% | 1012 hPa | 0 mm | 0 m/s | 149 W/m² | - |
| 1777995829 | 24.44° C | 86% | 1011.9 hPa | 0 mm | 0 m/s | 62 W/m² | - |
| 1777995526 | 24.44° C | 85% | 1012 hPa | 0 mm | 0 m/s | 80 W/m² | - |
| 1777995223 | 24.44° C | 85% | 1011.8 hPa | 0 mm | 0 m/s | 82 W/m² | - |
| 1777994920 | 24.44° C | 85% | 1011.9 hPa | 0 mm | 0 m/s | 58 W/m² | - |
* Rain latest hour (hover to see other rain measurements)
** Current wind speed in m/s (hover to see current wind gust speed)